Weather History for El Paso, TX

Change the Weather History Date:

Thursday, December 19, 2013

  Actual Average Record
Temperature  
Mean Temperature 55 °F 44 °F  
Max Temperature 70 °F 56 °F 74 °F (1921)
Min Temperature 39 °F 32 °F 11 °F (1996)
Degree Days  
Heating Degree Days 10 21  
Month to date heating degree days 347 373  
Since 1 July heating degree days 731 815  
Cooling Degree Days 0 0  
Month to date cooling degree days 0 0  
Year to date cooling degree days 2695 2331  
Growing Degree Days 4 (Base 50)    
Moisture  
Dew Point 19 °F    
Average Humidity 30    
Maximum Humidity 51    
Minimum Humidity 8    
Precipitation  
Precipitation 0.00 in 0.02 in 0.32 in (1914)
Month to date precipitation 0.23 0.50  
Year to date precipitation 9.48 9.43  
Snow  
Snow 0.00 in - - ()
Month to date snowfall T  
Since 1 July snowfall T  
Snow Depth 0.00 in    
Sea Level Pressure  
Sea Level Pressure 29.72 in    
Wind  
Wind Speed 11 mph (SW)    
Max Wind Speed 31 mph    
Max Gust Speed 41 mph    
Visibility 10 miles    
Events      
T = Trace of Precipitation, MM = Missing Value Source: NWS Daily Summary

Daily Weather History Graph

Daily Weather History Graph

Search for Another Location

Airport:

Trip Planner

Search our weather history database for the weather conditions in past years. The results will help you decide how hot, cold, wet, or windy it might be!

Date:

Astronomy

Dec. 19, 2013 Rise Set
Actual Time 7:00 AM MST 5:05 PM MST
Civil Twilight 6:33 AM MST 5:31 PM MST
Nautical Twilight 6:03 AM MST 6:02 PM MST
Astronomical Twilight 5:33 AM MST 6:32 PM MST
Moon 7:25 PM MST (12/19) 8:27 AM MST (12/19)
Length of Visible Light 10h 58m
Length of Day
10h 04m
Waning Gibbous, 95% of the Moon is Illuminated
Dec 19
Waning Gibbous
Dec 25
Last Quarter
Jan 1
New
Jan 7
First Quarter
Jan 15
Full

Hourly Weather History & Observations

Time (MST) Temp. Windchill Dew Point Humidity Pressure Visibility Wind Dir Wind Speed Gust Speed Precip Events Conditions
12:51 AM 46.0 °F 42.5 °F 25.0 °F 44% 29.81 in 10.0 mi SE 6.9 mph - N/A   Overcast
1:51 AM 45.0 °F - 24.1 °F 44% 29.82 in 10.0 mi Calm Calm - N/A   Overcast
2:51 AM 44.1 °F - 24.1 °F 45% 29.81 in 10.0 mi Calm Calm - N/A   Mostly Cloudy
3:51 AM 43.0 °F 41.3 °F 25.0 °F 49% 29.79 in 10.0 mi South 3.5 mph - N/A   Partly Cloudy
4:51 AM 41.0 °F - 24.1 °F 51% 29.78 in 10.0 mi Calm Calm - N/A   Partly Cloudy
5:51 AM 41.0 °F 35.2 °F 25.0 °F 53% 29.79 in 10.0 mi SSE 9.2 mph - N/A   Scattered Clouds
6:51 AM 41.0 °F 35.2 °F 25.0 °F 53% 29.80 in 10.0 mi SSE 9.2 mph - N/A   Mostly Cloudy
7:51 AM 44.1 °F 40.8 °F 24.1 °F 45% 29.79 in 10.0 mi SSE 5.8 mph - N/A   Scattered Clouds
8:51 AM 53.1 °F - 24.1 °F 32% 29.78 in 10.0 mi Variable 4.6 mph - N/A   Partly Cloudy
9:51 AM 57.0 °F - 23.0 °F 27% 29.77 in 10.0 mi SSW 5.8 mph - N/A   Partly Cloudy
10:51 AM 62.1 °F - 21.9 °F 21% 29.76 in 10.0 mi SSW 8.1 mph - N/A   Partly Cloudy
11:51 AM 64.9 °F - 17.1 °F 16% 29.72 in 10.0 mi WSW 12.7 mph - N/A   Scattered Clouds
12:51 PM 66.0 °F - 17.1 °F 15% 29.68 in 10.0 mi West 13.8 mph - N/A   Mostly Cloudy
1:51 PM 68.0 °F - 17.1 °F 14% 29.65 in 10.0 mi SW 10.4 mph 17.3 mph N/A   Scattered Clouds
2:51 PM 69.1 °F - 14.0 °F 12% 29.62 in 10.0 mi SW 11.5 mph 21.9 mph N/A   Partly Cloudy
3:51 PM 69.1 °F - 10.9 °F 11% 29.63 in 10.0 mi WSW 12.7 mph - N/A   Partly Cloudy
4:51 PM 66.9 °F - 3.9 °F 8% 29.65 in 10.0 mi WSW 16.1 mph 25.3 mph N/A   Partly Cloudy
5:51 PM 63.0 °F - 10.9 °F 13% 29.66 in 10.0 mi SW 15.0 mph - N/A   Partly Cloudy
6:51 PM 64.0 °F - 19.0 °F 18% 29.68 in 10.0 mi West 27.6 mph 33.4 mph N/A   Partly Cloudy
7:51 PM 64.0 °F - 19.9 °F 18% 29.68 in 10.0 mi West 28.8 mph 39.1 mph N/A   Partly Cloudy
8:51 PM 63.0 °F - 19.9 °F 19% 29.66 in 10.0 mi West 16.1 mph 29.9 mph N/A   Clear
9:51 PM 62.1 °F - 18.0 °F 18% 29.65 in 10.0 mi West 16.1 mph 31.1 mph N/A   Clear
10:51 PM 62.1 °F - 17.1 °F 18% 29.65 in 10.0 mi WSW 20.7 mph - N/A   Partly Cloudy
11:51 PM 59.0 °F - 17.1 °F 20% 29.66 in 10.0 mi WSW 16.1 mph 25.3 mph N/A   Scattered Clouds